Location: Chuathbaluk
(61.5726°N, 159.2454°W)
Time: 00:10:08
(UTC+00:00)

BEESAT 2 - Visible Passes

Search period start: 24 January 2021 00:00
Search period end: 03 February 2021 00:00
Orbit: 491 x 531 km, 64.9° (Epoch: 23 January)

Date Brightness Start Highest point End Pass type
(mag) Time Alt. Az. Time Alt. Az. Time Alt. Az.
24 Jan ? 03:45:35 10° WSW 03:49:35 71° NNW 03:52:54 15° ENE visible
24 Jan ? 05:23:35 10° WNW 05:27:32 52° N 05:27:47 51° NNE visible
24 Jan ? 07:01:22 10° WNW 07:02:41 20° WNW 07:02:41 20° WNW visible
25 Jan ? 03:28:22 10° WSW 03:32:23 71° NNW 03:36:14 11° ENE visible
25 Jan ? 05:06:22 10° WNW 05:10:19 52° N 05:11:08 44° NE visible
25 Jan ? 06:44:10 10° WNW 06:46:01 26° WNW 06:46:01 26° WNW visible
26 Jan ? 03:11:09 10° WSW 03:15:10 71° NNW 03:19:12 10° ENE visible
26 Jan ? 04:49:10 10° WNW 04:53:06 52° N 04:54:29 34° ENE visible
26 Jan ? 06:26:58 10° WNW 06:29:22 35° WNW 06:29:22 35° WNW visible
27 Jan ? 04:31:57 10° WNW 04:35:54 52° N 04:37:51 27° ENE visible
27 Jan ? 06:09:44 10° WNW 06:12:44 48° NW 06:12:44 48° NW visible
27 Jan ? 07:47:27 10° WNW 07:47:38 11° WNW 07:47:38 11° WNW visible
28 Jan ? 04:14:44 10° WNW 04:18:40 52° N 04:21:14 20° ENE visible
28 Jan ? 05:52:31 10° WNW 05:56:07 68° NW 05:56:07 68° NW visible
28 Jan ? 07:30:15 10° WNW 07:31:01 15° WNW 07:31:01 15° WNW visible
29 Jan ? 03:57:30 10° WNW 04:01:27 52° N 04:04:38 15° ENE visible
29 Jan ? 05:35:19 10° WNW 05:39:21 80° NNE 05:39:32 77° ENE visible
29 Jan ? 07:13:01 10° WNW 07:14:25 19° WNW 07:14:25 19° WNW visible
30 Jan ? 03:40:17 10° WNW 03:44:14 52° N 03:48:04 11° E visible
30 Jan ? 05:18:05 10° WNW 05:22:08 79° NNE 05:22:58 54° E visible
30 Jan ? 06:55:48 10° WNW 06:57:52 25° W 06:57:52 25° W visible
31 Jan ? 03:23:03 10° WNW 03:27:00 52° N 03:30:56 10° E visible
31 Jan ? 05:00:52 10° WNW 05:04:54 79° NNE 05:06:27 36° ESE visible
31 Jan ? 06:38:34 10° WNW 06:41:21 32° WSW 06:41:21 32° WSW visible
01 Feb ? 04:43:38 10° WNW 04:47:41 79° NNE 04:50:00 24° ESE visible
01 Feb ? 06:21:21 10° WNW 06:24:54 36° SW 06:24:54 36° SW visible
02 Feb ? 04:26:25 10° WNW 04:30:27 78° NNE 04:33:36 16° ESE visible
02 Feb ? 06:04:07 10° WNW 06:07:49 37° SW 06:08:31 34° SSW visible
